Location: ??????
(44.5958°N, 34.0092°E)
Time: 15:22:48
(UTC+00:00)

STARLINK-70 - Pass Details

Date: 06 June 2020
Orbit: 467 x 469 km, 53.0° (Epoch: 11 July)

Event Time Altitude Azimuth Distance (km) Brightness Sun altitude
Exits shadow 01:02:44 12° 228° (SW) 1,502 5.2 -8.7°
Maximum altitude 01:06:05 74° 144° (SE) 492 3.3 -8.3°
Drops below altitude 10° 01:09:44 10° 59° (ENE) 1,630 7.6 -7.8°
Sets 01:11:54 0° 58° (ENE) 2,510 9.1 -7.5°
